Flag for Poland Weather past 2 weeks in Lidzbark Warmiński, Poland

Now
52 °F

Overcast.


Feels Like: 52 °F
Forecast: 46 / 72 °F
Wind: 2 mph from East

Location: Ketrzyn


UV Index: 3 (Moderate)

Visibility: 8 mi


Pressure: 30.06 "Hg

Humidity: 79%

Dew point: 46 °F

Location of Lidzbark WarmińskiLocation

Historic Weather in Lidzbark Warmiński

°F

Lidzbark Warmiński temperature yesterday

Maximum temperature yesterday: 58 °F (at 5:00 PM)
Minimum temperature yesterday: 38 °F (at 5:00 AM)
Average temperature yesterday: 50 °F

Past Weeks' High & Low Weather Summary

 TemperatureHumidityPressure
High68 °F (Apr 8, 4:00 PM)100% (Apr 7, 6:00 PM)30.40 "Hg (Apr 7, 6:00 PM)
Low29 °F (Apr 17, 5:00 AM)26% (Apr 17, 3:00 PM)29.57 "Hg (Apr 14, 4:00 PM)
Average45 °F75%29.99 "Hg
* Reported Midnight between Apr 3 and Apr 4 — Midnight between Apr 18 and Apr 19, Lidzbark Warmiński, Weather by CustomWeather, © 2014

Note: Actual official high and low records may vary slightly from our data, if they occured in-between our weather recording intervals... More about our weather records

Advertising

Historic Weather Conditions — Data for Previous 24 hours

 ConditionsComfort  
Time TempWeatherWind HumidityBarometerVisibility
12:00 AM
Apr 19
53 °FOvercast.2 mph76%30.04 "Hg8 mi
10:00 PM
Apr 18
53 °FPassing clouds.3 mph77%30.01 "Hg6 mi
9:00 PM53 °FClear.3 mph77%29.99 "Hg6 mi
8:00 PM54 °FPassing clouds.2 mph72%29.97 "Hg6 mi
7:00 PM57 °FScattered clouds.3 mph65%29.94 "Hg12 mi
6:00 PM58 °FPartly sunny.3 mph61%29.92 "Hg14 mi
5:00 PM58 °FOvercast.3 mph60%29.91 "Hg14 mi
4:00 PM57 °FOvercast.5 mph60%29.90 "Hg12 mi
3:00 PM56 °FOvercast.7 mph59%29.89 "Hg12 mi
2:00 PM55 °FOvercast.7 mph62%29.89 "Hg12 mi
1:00 PM55 °FOvercast.7 mph63%29.88 "Hg15 mi
12:00 PM55 °FOvercast.8 mph60%29.88 "Hg17 mi
11:00 AM56 °FOvercast.6 mph55%29.87 "Hg19 mi
10:00 AM52 °FOvercast.6 mph53%29.88 "Hg25 mi
9:00 AM52 °FPassing clouds.6 mph53%29.88 "Hg19 mi
8:00 AM47 °FPassing clouds.6 mph61%29.88 "Hg18 mi
7:00 AM42 °FScattered clouds.6 mph69%29.90 "Hg19 mi
6:00 AM39 °FPartly sunny.6 mph75%29.90 "Hg19 mi
5:00 AM38 °FPassing clouds.3 mph78%29.92 "Hg19 mi
4:00 AM38 °FPassing clouds.3 mph78%29.93 "Hg22 mi
3:00 AM38 °FPassing clouds.3 mph70%29.95 "Hg19 mi
2:00 AM39 °FPassing clouds.2 mph68%29.97 "Hg19 mi
Weather by CustomWeather, © 2014

See weather overview